| time (UTC) | temp F | wind direction | speed MPH | gust MPH | rain 1hr in | rain 24hr in | rain mn in | humidity % | barometer mb |
| 20260508204255 | 58 | 248 | 0.0 | 0.0 | 0.00 | 0.00 | 0.00 | 32 | 998.4 |
| 20260508203752 | 58 | 225 | 0.0 | 0.0 | 0.00 | 0.00 | 0.00 | 32 | 998.3 |
| 20260508203250 | 58 | 203 | 0.0 | 0.0 | 0.00 | 0.00 | 0.00 | 33 | 998.5 |
| 20260508202747 | 58 | 203 | 0.0 | 0.0 | 0.00 | 0.00 | 0.00 | 30 | 998.5 |
| 20260508202244 | 58 | 248 | 0.0 | 0.0 | 0.00 | 0.00 | 0.00 | 29 | 998.3 |
| 20260508201236 | 60 | 225 | 0.0 | 0.0 | 0.00 | 0.00 | 0.00 | 27 | 998.3 |
| 20260508200737 | 60 | 248 | 0.0 | 0.0 | 0.00 | 0.00 | 0.00 | 27 | 998.5 |
| 20260508195802 | 59 | 225 | 0.0 | 0.0 | 0.00 | 0.00 | 0.00 | 27 | 998.5 |
| 20260508194736 | 60 | 248 | 0.0 | 0.0 | 0.00 | 0.00 | 0.00 | 27 | 998.2 |
| 20260508194237 | 60 | 225 | 0.0 | 0.0 | 0.00 | 0.00 | 0.00 | 28 | 998.3 |
| 20260508193736 | 60 | 225 | 0.0 | 0.0 | 0.00 | 0.00 | 0.00 | 28 | 998.4 |
| 20260508193237 | 60 | 248 | 0.0 | 0.0 | 0.00 | 0.00 | 0.00 | 28 | 998.1 |
| 20260508192758 | 60 | 248 | 0.0 | 0.0 | 0.00 | 0.00 | 0.00 | 26 | 998.4 |
| 20260508192236 | 60 | 225 | 0.0 | 0.0 | 0.00 | 0.00 | 0.00 | 26 | 998.4 |
| 20260508191737 | 60 | 248 | 0.0 | 0.0 | 0.00 | 0.00 | 0.00 | 27 | 998.2 |
| 20260508191236 | 60 | 248 | 0.0 | 0.0 | 0.00 | 0.00 | 0.00 | 25 | 998.0 |
| 20260508190736 | 60 | 225 | 0.0 | 0.0 | 0.00 | 0.00 | 0.00 | 26 | 998.3 |
| 20260508190236 | 60 | 248 | 0.0 | 0.0 | 0.00 | 0.00 | 0.00 | 28 | 998.4 |
| 20260508185740 | 60 | 270 | 0.0 | 0.0 | 0.00 | 0.00 | 0.00 | 26 | 998.1 |
| 20260508185238 | 60 | 225 | 0.0 | 0.0 | 0.00 | 0.00 | 0.00 | 27 | 997.9 |
| 20260508184736 | 59 | 248 | 0.0 | 0.0 | 0.00 | 0.00 | 0.00 | 25 | 998.1 |
| 20260508184236 | 59 | 225 | 0.0 | 0.0 | 0.00 | 0.00 | 0.00 | 26 | 998.2 |
| 20260508183236 | 58 | 225 | 0.0 | 0.0 | 0.00 | 0.00 | 0.00 | 26 | 998.3 |
| 20260508182738 | 58 | 225 | 0.0 | 0.0 | 0.00 | 0.00 | 0.00 | 28 | 998.4 |
| 20260508181736 | 58 | 248 | 0.0 | 0.0 | 0.00 | 0.00 | 0.00 | 26 | 998.6 |
| 20260508181236 | 57 | 225 | 0.0 | 0.0 | 0.00 | 0.00 | 0.00 | 27 | 998.6 |
| 20260508180736 | 58 | 225 | 0.0 | 0.0 | 0.00 | 0.00 | 0.00 | 25 | 998.8 |
| 20260508180238 | 58 | 248 | 0.0 | 0.0 | 0.00 | 0.00 | 0.00 | 26 | 998.8 |
| 20260508175736 | 59 | 225 | 0.0 | 0.0 | 0.00 | 0.00 | 0.00 | 25 | 998.9 |
| 20260508175236 | 59 | 248 | 0.0 | 0.0 | 0.00 | 0.00 | 0.00 | 27 | 998.9 |
| 20260508174237 | 59 | 225 | 0.0 | 0.0 | 0.00 | 0.00 | 0.00 | 26 | 998.9 |
| 20260508173735 | 59 | 225 | 0.0 | 0.0 | 0.00 | 0.00 | 0.00 | 25 | 999.0 |
| 20260508173232 | 59 | 248 | 0.0 | 0.0 | 0.00 | 0.00 | 0.00 | 27 | 999.2 |
| 20260508172729 | 59 | 248 | 0.0 | 0.0 | 0.00 | 0.00 | 0.00 | 25 | 999.1 |
| 20260508172226 | 58 | 225 | 0.0 | 0.0 | 0.00 | 0.00 | 0.00 | 26 | 999.1 |
| 20260508171222 | 58 | 270 | 0.0 | 0.0 | 0.00 | 0.00 | 0.00 | 25 | 999.3 |
| 20260508170708 | 57 | 225 | 0.0 | 0.0 | 0.00 | 0.00 | 0.00 | 25 | 999.3 |
| 20260508170208 | 58 | 203 | 0.0 | 0.0 | 0.00 | 0.00 | 0.00 | 26 | 999.6 |
| 20260508165708 | 58 | 225 | 0.0 | 0.0 | 0.00 | 0.00 | 0.00 | 23 | 999.6 |
| 20260508165208 | 58 | 225 | 0.0 | 0.0 | 0.00 | 0.00 | 0.00 | 22 | 999.6 |
| 20260508164708 | 57 | 225 | 0.0 | 0.0 | 0.00 | 0.00 | 0.00 | 19 | 999.7 |
| 20260508164208 | 58 | 225 | 0.0 | 0.0 | 0.00 | 0.00 | 0.00 | 20 | 999.6 |
| 20260508163708 | 58 | 225 | 0.0 | 0.0 | 0.00 | 0.00 | 0.00 | 24 | 999.9 |
| 20260508162708 | 58 | 270 | 0.0 | 0.0 | 0.00 | 0.00 | 0.00 | 30 | 999.9 |
| 20260508162207 | 57 | 270 | 0.0 | 0.0 | 0.00 | 0.00 | 0.00 | 30 | 1000.0 |
| 20260508161707 | 57 | 248 | 0.0 | 0.0 | 0.00 | 0.00 | 0.00 | 31 | 1000.1 |
| 20260508161208 | 56 | 248 | 0.0 | 0.0 | 0.00 | 0.00 | 0.00 | 31 | 1000.3 |
| 20260508160208 | 56 | 248 | 0.0 | 0.0 | 0.00 | 0.00 | 0.00 | 34 | 1000.4 |
| 20260508155708 | 56 | 180 | 0.0 | 0.0 | 0.00 | 0.00 | 0.00 | 34 | 1000.0 |
| 20260508155209 | 56 | 225 | 0.0 | 0.0 | 0.00 | 0.00 | 0.00 | 36 | 1000.2 |
| 20260508154708 | 56 | 225 | 0.0 | 0.0 | 0.00 | 0.00 | 0.00 | 34 | 1000.1 |
| 20260508153709 | 56 | 248 | 0.0 | 0.0 | 0.00 | 0.00 | 0.00 | 33 | 1000.4 |
| 20260508153208 | 56 | 248 | 0.0 | 0.0 | 0.00 | 0.00 | 0.00 | 35 | 1000.5 |
| 20260508152708 | 55 | 225 | 0.0 | 0.0 | 0.00 | 0.00 | 0.00 | 36 | 1000.4 |
| 20260508152208 | 55 | 225 | 0.0 | 0.0 | 0.00 | 0.00 | 0.00 | 36 | 1000.6 |
| 20260508151709 | 55 | 225 | 0.0 | 0.0 | 0.00 | 0.00 | 0.00 | 36 | 1000.7 |
| 20260508151208 | 55 | 225 | 0.0 | 0.0 | 0.00 | 0.00 | 0.00 | 36 | 1000.5 |
| 20260508150708 | 55 | 248 | 0.0 | 0.0 | 0.00 | 0.00 | 0.00 | 35 | 1000.7 |
| 20260508150208 | 55 | 225 | 0.0 | 0.0 | 0.00 | 0.00 | 0.00 | 37 | 1000.9 |
| 20260508145208 | 54 | 248 | 0.0 | 0.0 | 0.00 | 0.00 | 0.00 | 39 | 1001.2 |
| 20260508144208 | 54 | 248 | 0.0 | 0.0 | 0.00 | 0.00 | 0.00 | 41 | 1001.1 |
| 20260508143708 | 53 | 248 | 0.0 | 0.0 | 0.00 | 0.00 | 0.00 | 41 | 1001.1 |
| 20260508142707 | 53 | 225 | 0.0 | 0.0 | 0.00 | 0.00 | 0.00 | 41 | 1001.2 |
| 20260508141530 | 52 | 225 | 0.0 | 0.0 | 0.00 | 0.00 | 0.00 | 42 | 1001.6 |
| 20260508141029 | 52 | 203 | 0.0 | 0.0 | 0.00 | 0.00 | 0.00 | 43 | 1001.6 |
| 20260508140029 | 52 | 248 | 0.0 | 0.0 | 0.00 | 0.00 | 0.00 | 44 | 1001.5 |
| 20260508135529 | 51 | 225 | 0.0 | 0.0 | 0.00 | 0.00 | 0.00 | 42 | 1001.7 |
| 20260508135029 | 51 | 225 | 0.0 | 0.0 | 0.00 | 0.00 | 0.00 | 41 | 1001.7 |
| 20260508134529 | 51 | 225 | 0.0 | 0.0 | 0.00 | 0.00 | 0.00 | 42 | 1001.8 |
| 20260508134029 | 51 | 225 | 0.0 | 0.0 | 0.00 | 0.00 | 0.00 | 41 | 1001.9 |
| 20260508133530 | 51 | 248 | 0.0 | 0.0 | 0.00 | 0.00 | 0.00 | 42 | 1001.9 |
| 20260508133028 | 50 | 248 | 0.0 | 0.0 | 0.00 | 0.00 | 0.00 | 43 | 1001.6 |
| 20260508132530 | 51 | 203 | 0.0 | 0.0 | 0.00 | 0.00 | 0.00 | 43 | 1001.7 |
| 20260508132029 | 50 | 225 | 0.0 | 0.0 | 0.00 | 0.00 | 0.00 | 44 | 1001.7 |
| 20260508131530 | 50 | 225 | 0.0 | 0.0 | 0.00 | 0.00 | 0.00 | 43 | 1001.7 |
| 20260508131030 | 49 | 203 | 0.0 | 0.0 | 0.00 | 0.00 | 0.00 | 45 | 1001.7 |
| 20260508130529 | 49 | 248 | 0.0 | 0.0 | 0.00 | 0.00 | 0.00 | 46 | 1001.7 |
| 20260508125530 | 48 | 225 | 0.0 | 0.0 | 0.00 | 0.00 | 0.00 | 47 | 1001.7 |
| 20260508125029 | 48 | 248 | 0.0 | 0.0 | 0.00 | 0.00 | 0.00 | 46 | 1001.5 |
| 20260508124531 | 48 | 225 | 0.0 | 0.0 | 0.00 | 0.00 | 0.00 | 47 | 1001.7 |
| 20260508123529 | 47 | 248 | 0.0 | 0.0 | 0.00 | 0.00 | 0.00 | 49 | 1001.5 |
| 20260508123030 | 47 | 248 | 0.0 | 0.0 | 0.00 | 0.00 | 0.00 | 50 | 1001.3 |
| 20260508122529 | 47 | 225 | 0.0 | 0.0 | 0.00 | 0.00 | 0.00 | 50 | 1001.4 |
| 20260508122030 | 46 | 225 | 0.0 | 0.0 | 0.00 | 0.00 | 0.00 | 50 | 1001.3 |
| 20260508121529 | 46 | 315 | 0.0 | 0.0 | 0.00 | 0.00 | 0.00 | 51 | 1001.2 |
| 20260508121029 | 46 | 270 | 0.0 | 0.0 | 0.00 | 0.00 | 0.00 | 51 | 1001.2 |
| 20260508120528 | 45 | 248 | 0.0 | 0.0 | 0.00 | 0.00 | 0.00 | 52 | 1001.3 |
| 20260508120030 | 45 | 225 | 0.0 | 0.0 | 0.00 | 0.00 | 0.00 | 53 | 1001.2 |
| 20260508115530 | 45 | 270 | 0.0 | 0.0 | 0.00 | 0.00 | 0.00 | 54 | 1001.0 |
| 20260508115029 | 45 | 270 | 0.0 | 0.0 | 0.00 | 0.00 | 0.00 | 53 | 1000.9 |
| 20260508113529 | 44 | 248 | 0.0 | 0.0 | 0.00 | 0.00 | 0.00 | 55 | 1000.7 |
| 20260508113030 | 43 | 225 | 0.0 | 0.0 | 0.00 | 0.00 | 0.00 | 57 | 1000.7 |
| 20260508112529 | 42 | 270 | 0.0 | 0.0 | 0.00 | 0.00 | 0.00 | 59 | 1000.5 |
| 20260508112029 | 41 | 225 | 0.0 | 0.0 | 0.00 | 0.00 | 0.00 | 62 | 1000.6 |
| 20260508111529 | 41 | 225 | 0.0 | 0.0 | 0.00 | 0.00 | 0.00 | 63 | 1000.7 |
| 20260508111029 | 40 | 248 | 0.0 | 0.0 | 0.00 | 0.00 | 0.00 | 64 | 1000.6 |
| 20260508110530 | 40 | 270 | 0.0 | 0.0 | 0.00 | 0.00 | 0.00 | 66 | 1000.6 |
| 20260508110029 | 40 | 270 | 0.0 | 0.0 | 0.00 | 0.00 | 0.00 | 65 | 1000.5 |
| 20260508105529 | 40 | 225 | 0.0 | 0.0 | 0.00 | 0.00 | 0.00 | 64 | 1000.6 |
| 20260508105029 | 41 | 270 | 0.0 | 0.0 | 0.00 | 0.00 | 0.00 | 64 | 1000.3 |
| 20260508104529 | 41 | 270 | 0.0 | 0.0 | 0.00 | 0.00 | 0.00 | 63 | 1000.5 |
| 20260508104028 | 41 | 248 | 0.0 | 0.0 | 0.00 | 0.00 | 0.00 | 63 | 1000.5 |
| 20260508103524 | 41 | 248 | 0.0 | 0.0 | 0.00 | 0.00 | 0.00 | 62 | 1000.5 |
| 20260508103021 | 41 | 248 | 0.0 | 0.0 | 0.00 | 0.00 | 0.00 | 61 | 1000.4 |
| 20260508101502 | 42 | 225 | 0.0 | 0.0 | 0.00 | 0.00 | 0.00 | 60 | 1000.1 |
| 20260508100502 | 42 | 270 | 0.0 | 0.0 | 0.00 | 0.00 | 0.00 | 58 | 1000.2 |
| 20260508100002 | 43 | 203 | 0.0 | 0.0 | 0.00 | 0.00 | 0.00 | 57 | 1000.1 |
| 20260508095501 | 43 | 225 | 0.0 | 0.0 | 0.00 | 0.00 | 0.00 | 57 | 1000.2 |
| 20260508095001 | 43 | 248 | 0.0 | 0.0 | 0.00 | 0.00 | 0.00 | 57 | 1000.0 |
| 20260508094501 | 42 | 225 | 0.0 | 0.0 | 0.00 | 0.00 | 0.00 | 59 | 1000.1 |
| 20260508094001 | 42 | 248 | 0.0 | 0.0 | 0.00 | 0.00 | 0.00 | 59 | 1000.1 |
| 20260508093502 | 43 | 248 | 0.0 | 0.0 | 0.00 | 0.00 | 0.00 | 57 | 999.8 |
| 20260508093001 | 43 | 270 | 0.0 | 0.0 | 0.00 | 0.00 | 0.00 | 57 | 999.8 |
| 20260508092001 | 43 | 248 | 0.0 | 0.0 | 0.00 | 0.00 | 0.00 | 56 | 999.6 |
| 20260508091501 | 44 | 248 | 0.0 | 0.0 | 0.00 | 0.00 | 0.00 | 56 | 999.4 |
| 20260508091001 | 44 | 248 | 0.0 | 0.0 | 0.00 | 0.00 | 0.00 | 55 | 999.4 |
| 20260508090502 | 44 | 225 | 0.0 | 0.0 | 0.00 | 0.00 | 0.00 | 53 | 999.2 |
| 20260508090001 | 45 | 225 | 0.0 | 0.0 | 0.00 | 0.00 | 0.00 | 53 | 999.5 |
| 20260508085500 | 45 | 225 | 0.0 | 0.0 | 0.00 | 0.00 | 0.00 | 52 | 999.3 |
| 20260508084002 | 45 | 225 | 0.0 | 0.0 | 0.00 | 0.00 | 0.00 | 52 | 999.3 |
| 20260508083501 | 45 | 225 | 0.0 | 0.0 | 0.00 | 0.00 | 0.00 | 52 | 999.3 |
| 20260508083000 | 45 | 248 | 0.0 | 0.0 | 0.00 | 0.00 | 0.00 | 52 | 999.3 |
| 20260508082501 | 46 | 270 | 0.0 | 0.0 | 0.00 | 0.00 | 0.00 | 51 | 999.3 |
| 20260508082006 | 45 | 225 | 0.0 | 0.0 | 0.00 | 0.00 | 0.00 | 52 | 999.2 |
| 20260508081501 | 45 | 225 | 0.0 | 0.0 | 0.00 | 0.00 | 0.00 | 54 | 999.5 |
| 20260508080001 | 45 | 225 | 0.0 | 0.0 | 0.00 | 0.00 | 0.00 | 55 | 999.6 |
| 20260508075502 | 45 | 225 | 0.0 | 0.0 | 0.00 | 0.00 | 0.00 | 55 | 999.6 |
| 20260508075002 | 45 | 270 | 0.0 | 0.0 | 0.00 | 0.00 | 0.00 | 55 | 999.4 |
| 20260508074501 | 45 | 248 | 0.0 | 0.0 | 0.00 | 0.00 | 0.00 | 56 | 999.6 |
| 20260508074001 | 46 | 248 | 0.0 | 0.0 | 0.00 | 0.00 | 0.00 | 55 | 999.6 |
| 20260508073501 | 46 | 248 | 0.0 | 0.0 | 0.00 | 0.00 | 0.00 | 55 | 999.6 |
| 20260508073001 | 46 | 270 | 0.0 | 0.0 | 0.00 | 0.00 | 0.00 | 54 | 999.3 |
| 20260508072501 | 46 | 225 | 0.0 | 0.0 | 0.00 | 0.00 | 0.00 | 54 | 999.5 |
| 20260508072001 | 46 | 203 | 0.0 | 0.0 | 0.00 | 0.00 | 0.00 | 55 | 999.6 |
| 20260508071501 | 45 | 248 | 0.0 | 0.0 | 0.00 | 0.00 | 0.00 | 56 | 999.3 |
| 20260508071001 | 44 | 270 | 0.0 | 0.0 | 0.00 | 0.00 | 0.00 | 60 | 999.2 |
| 20260508070500 | 44 | 270 | 0.0 | 0.0 | 0.00 | 0.00 | 0.00 | 63 | 999.3 |
| 20260508065458 | 45 | 248 | 0.0 | 0.0 | 0.00 | 0.00 | 0.00 | 58 | 999.2 |
| 20260508064955 | 46 | 270 | 0.0 | 0.0 | 0.00 | 0.00 | 0.00 | 58 | 999.1 |
| 20260508064452 | 46 | 270 | 0.0 | 0.0 | 0.00 | 0.00 | 0.00 | 57 | 999.4 |
| 20260508062943 | 46 | 248 | 0.0 | 0.0 | 0.00 | 0.00 | 0.00 | 57 | 999.2 |
| 20260508062441 | 46 | 225 | 0.0 | 0.0 | 0.00 | 0.00 | 0.00 | 58 | 999.2 |
| 20260508061435 | 45 | 248 | 0.0 | 0.0 | 0.00 | 0.00 | 0.00 | 59 | 999.4 |
| 20260508060930 | 45 | 225 | 0.0 | 0.0 | 0.00 | 0.00 | 0.00 | 60 | 999.3 |
| 20260508060429 | 45 | 248 | 0.0 | 0.0 | 0.00 | 0.00 | 0.00 | 60 | 999.3 |
| 20260508055429 | 44 | 225 | 0.0 | 0.0 | 0.00 | 0.00 | 0.00 | 63 | 999.5 |
| 20260508054428 | 44 | 270 | 0.0 | 0.0 | 0.00 | 0.00 | 0.00 | 64 | 999.9 |
| 20260508053929 | 45 | 248 | 0.0 | 0.0 | 0.00 | 0.00 | 0.00 | 62 | 999.7 |
| 20260508053429 | 46 | 270 | 0.0 | 0.0 | 0.00 | 0.00 | 0.00 | 60 | 999.8 |
| 20260508052930 | 46 | 270 | 0.0 | 0.0 | 0.00 | 0.00 | 0.00 | 57 | 999.8 |
| 20260508052428 | 46 | 248 | 0.0 | 0.0 | 0.00 | 0.00 | 0.00 | 57 | 999.5 |
| 20260508051429 | 45 | 203 | 0.0 | 0.0 | 0.00 | 0.00 | 0.00 | 61 | 999.7 |
| 20260508050930 | 45 | 225 | 0.0 | 0.0 | 0.00 | 0.00 | 0.00 | 63 | 999.5 |
| 20260508050429 | 44 | 225 | 0.0 | 0.0 | 0.00 | 0.00 | 0.00 | 63 | 1000.0 |
| 20260508045929 | 45 | 248 | 0.0 | 0.0 | 0.00 | 0.00 | 0.00 | 63 | 999.8 |
| 20260508045428 | 45 | 203 | 0.0 | 0.0 | 0.00 | 0.00 | 0.00 | 63 | 999.6 |
| 20260508044929 | 44 | 248 | 0.0 | 0.0 | 0.00 | 0.00 | 0.00 | 64 | 999.6 |
| 20260508044430 | 44 | 270 | 0.0 | 0.0 | 0.00 | 0.00 | 0.00 | 64 | 999.6 |
| 20260508043930 | 44 | 225 | 0.0 | 0.0 | 0.00 | 0.00 | 0.00 | 64 | 999.7 |
| 20260508043430 | 44 | 293 | 0.0 | 0.0 | 0.00 | 0.00 | 0.00 | 64 | 999.8 |
| 20260508042929 | 45 | 225 | 0.0 | 0.0 | 0.00 | 0.00 | 0.00 | 64 | 999.7 |
| 20260508042429 | 45 | 248 | 0.0 | 0.0 | 0.00 | 0.00 | 0.00 | 63 | 999.7 |
| 20260508041930 | 45 | 248 | 0.0 | 0.0 | 0.00 | 0.00 | 0.00 | 63 | 999.3 |
| 20260508040929 | 45 | 248 | 0.0 | 0.0 | 0.00 | 0.00 | 0.00 | 64 | 999.4 |
| 20260508035428 | 46 | 225 | 0.0 | 0.0 | 0.00 | 0.00 | 0.00 | 62 | 999.2 |
| 20260508034929 | 46 | 248 | 0.0 | 0.0 | 0.00 | 0.00 | 0.00 | 61 | 998.9 |
| 20260508034429 | 45 | 225 | 0.0 | 0.0 | 0.00 | 0.00 | 0.00 | 62 | 999.0 |
| 20260508033929 | 44 | 248 | 0.0 | 0.0 | 0.00 | 0.00 | 0.00 | 65 | 998.8 |
| 20260508033429 | 44 | 248 | 0.0 | 0.0 | 0.00 | 0.00 | 0.00 | 67 | 998.9 |
| 20260508032929 | 44 | 270 | 0.0 | 0.0 | 0.00 | 0.01 | 0.00 | 69 | 998.6 |
| 20260508032430 | 44 | 225 | 0.0 | 0.0 | 0.00 | 0.01 | 0.00 | 68 | 998.5 |
| 20260508031930 | 44 | 248 | 0.0 | 0.0 | 0.00 | 0.01 | 0.00 | 68 | 998.5 |
| 20260508031429 | 44 | 248 | 0.0 | 0.0 | 0.00 | 0.02 | 0.00 | 68 | 998.5 |
| 20260508030931 | 44 | 270 | 0.0 | 0.0 | 0.00 | 0.09 | 0.00 | 68 | 998.8 |
| 20260508030430 | 44 | 248 | 0.0 | 0.0 | 0.00 | 0.18 | 0.00 | 68 | 998.8 |
| 20260508025430 | 43 | 225 | 0.0 | 0.0 | 0.00 | 0.27 | 0.24 | 70 | 998.8 |
| 20260508024930 | 43 | 225 | 0.0 | 0.0 | 0.00 | 0.28 | 0.24 | 71 | 998.7 |
| 20260508024428 | 44 | 270 | 0.0 | 0.0 | 0.00 | 0.31 | 0.24 | 70 | 998.5 |
| 20260508023925 | 44 | 225 | 0.0 | 0.0 | 0.00 | 0.39 | 0.24 | 69 | 998.6 |
| 20260508023422 | 44 | 248 | 0.0 | 0.0 | 0.00 | 0.46 | 0.24 | 70 | 998.7 |
| 20260508022417 | 43 | 248 | 0.0 | 0.0 | 0.00 | 0.52 | 0.24 | 70 | 998.6 |
| 20260508021914 | 43 | 293 | 0.0 | 0.0 | 0.00 | 0.67 | 0.24 | 72 | 998.8 |
| 20260508021432 | 41 | 270 | 0.0 | 0.0 | 0.00 | 0.73 | 0.24 | 75 | 998.6 |
| 20260508020908 | 40 | 270 | 0.0 | 0.0 | 0.00 | 0.92 | 0.24 | 78 | 998.4 |
| 20260508020402 | 40 | 270 | 0.0 | 0.0 | 0.00 | 0.96 | 0.24 | 77 | 998.4 |
| 20260508015901 | 40 | 293 | 0.0 | 0.0 | 0.00 | 0.96 | 0.24 | 76 | 998.5 |
| 20260508015401 | 40 | 293 | 0.0 | 0.0 | 0.00 | 0.96 | 0.24 | 74 | 998.6 |
| 20260508014901 | 42 | 315 | 0.0 | 0.0 | 0.00 | 0.96 | 0.24 | 71 | 998.6 |
| 20260508014410 | 42 | 293 | 0.0 | 0.0 | 0.00 | 0.96 | 0.24 | 68 | 998.6 |
| 20260508013401 | 44 | 293 | 0.0 | 0.0 | 0.00 | 0.96 | 0.24 | 65 | 998.2 |
| 20260508012902 | 42 | 293 | 0.0 | 0.0 | 0.00 | 0.96 | 0.24 | 68 | 998.2 |
| 20260508012401 | 40 | 270 | 0.0 | 0.0 | 0.00 | 0.96 | 0.24 | 79 | 998.0 |
| 20260508011901 | 41 | 270 | 0.0 | 0.0 | 0.00 | 0.96 | 0.24 | 76 | 998.0 |
| 20260508011401 | 43 | 270 | 0.0 | 0.0 | 0.00 | 0.96 | 0.24 | 71 | 997.4 |
| 20260508010901 | 44 | 270 | 0.0 | 0.0 | 0.00 | 0.96 | 0.24 | 65 | 997.7 |
| 20260508010402 | 44 | 270 | 0.0 | 0.0 | 0.00 | 0.96 | 0.24 | 65 | 997.9 |
| 20260508005401 | 44 | 270 | 0.0 | 0.0 | 0.00 | 0.96 | 0.24 | 68 | 998.0 |
| 20260508004901 | 44 | 270 | 0.0 | 0.0 | 0.00 | 0.96 | 0.24 | 67 | 997.8 |
| 20260508004401 | 45 | 270 | 0.0 | 0.0 | 0.00 | 0.96 | 0.24 | 65 | 997.8 |
| 20260508003901 | 45 | 270 | 0.0 | 0.0 | 0.00 | 0.96 | 0.24 | 65 | 998.1 |
| 20260508003401 | 46 | 270 | 0.0 | 0.0 | 0.00 | 0.96 | 0.24 | 64 | 998.0 |
| 20260508002901 | 46 | 248 | 0.0 | 0.0 | 0.00 | 0.96 | 0.24 | 60 | 998.0 |
| 20260508002402 | 46 | 248 | 0.0 | 0.0 | 0.00 | 0.96 | 0.24 | 62 | 997.9 |
| 20260508001402 | 46 | 248 | 0.0 | 0.0 | 0.00 | 0.96 | 0.24 | 63 | 998.1 |
| 20260508000901 | 46 | 248 | 0.0 | 0.0 | 0.00 | 0.96 | 0.24 | 63 | 998.1 |
| 20260508000401 | 46 | 248 | 0.0 | 0.0 | 0.00 | 0.96 | 0.24 | 64 | 998.2 |
| 20260507234901 | 46 | 248 | 0.0 | 0.0 | 0.00 | 0.96 | 0.24 | 64 | 997.9 |
| 20260507234402 | 46 | 270 | 0.0 | 0.0 | 0.00 | 0.96 | 0.24 | 64 | 997.8 |
| 20260507233901 | 46 | 270 | 0.0 | 0.0 | 0.00 | 0.96 | 0.24 | 63 | 997.7 |
| 20260507233401 | 46 | 270 | 0.0 | 0.0 | 0.00 | 0.96 | 0.24 | 63 | 997.8 |
| 20260507232901 | 47 | 270 | 0.0 | 0.0 | 0.00 | 0.96 | 0.24 | 62 | 997.8 |
| 20260507232400 | 47 | 293 | 0.0 | 0.0 | 0.00 | 0.96 | 0.24 | 62 | 997.7 |
| 20260507231902 | 48 | 270 | 0.0 | 0.0 | 0.00 | 0.96 | 0.24 | 62 | 997.8 |
| 20260507231401 | 49 | 270 | 0.0 | 0.0 | 0.00 | 0.96 | 0.24 | 58 | 997.6 |
| 20260507230902 | 50 | 248 | 0.0 | 0.0 | 0.00 | 0.96 | 0.24 | 57 | 997.4 |
| 20260507230401 | 50 | 248 | 0.0 | 0.0 | 0.00 | 0.96 | 0.24 | 56 | 997.5 |
| 20260507225900 | 51 | 270 | 0.0 | 0.0 | 0.00 | 0.96 | 0.24 | 54 | 997.4 |
| 20260507225402 | 51 | 248 | 0.0 | 0.0 | 0.00 | 0.96 | 0.24 | 54 | 997.2 |
| 20260507224901 | 51 | 248 | 0.0 | 0.0 | 0.00 | 0.96 | 0.24 | 53 | 997.2 |
| 20260507224401 | 51 | 225 | 0.0 | 0.0 | 0.00 | 0.96 | 0.24 | 52 | 997.0 |
| 20260507223901 | 52 | 248 | 0.0 | 0.0 | 0.00 | 0.96 | 0.24 | 52 | 997.0 |
| 20260507223401 | 53 | 248 | 0.0 | 0.0 | 0.00 | 0.96 | 0.24 | 50 | 996.9 |
| 20260507222901 | 54 | 225 | 0.0 | 0.0 | 0.00 | 0.96 | 0.24 | 49 | 996.7 |
| 20260507222402 | 54 | 225 | 0.0 | 0.0 | 0.00 | 0.96 | 0.24 | 48 | 996.8 |
| 20260507221401 | 55 | 248 | 0.0 | 0.0 | 0.00 | 0.96 | 0.24 | 47 | 996.6 |
| 20260507215902 | 56 | 225 | 0.0 | 0.0 | 0.00 | 0.96 | 0.24 | 46 | 996.4 |
| 20260507215402 | 56 | 248 | 0.0 | 0.0 | 0.00 | 0.96 | 0.24 | 45 | 996.5 |
| 20260507214401 | 57 | 203 | 0.0 | 0.0 | 0.00 | 0.96 | 0.24 | 43 | 996.3 |
| 20260507213901 | 58 | 225 | 0.0 | 0.0 | 0.00 | 0.96 | 0.24 | 43 | 996.1 |
| 20260507213401 | 58 | 225 | 0.0 | 0.0 | 0.00 | 0.96 | 0.24 | 42 | 996.0 |
| 20260507212902 | 59 | 203 | 0.0 | 0.0 | 0.00 | 0.96 | 0.24 | 41 | 995.6 |
| 20260507212401 | 59 | 225 | 0.0 | 0.0 | 0.00 | 0.96 | 0.24 | 40 | 995.8 |
| 20260507211901 | 59 | 203 | 0.0 | 0.0 | 0.00 | 0.96 | 0.24 | 39 | 995.6 |
| 20260507211401 | 60 | 225 | 0.0 | 0.0 | 0.00 | 0.96 | 0.24 | 37 | 995.9 |
| 20260507210901 | 60 | 248 | 0.0 | 0.0 | 0.00 | 0.96 | 0.24 | 36 | 995.6 |
| 20260507210401 | 61 | 248 | 0.0 | 0.0 | 0.00 | 0.96 | 0.24 | 37 | 995.7 |
| 20260507205901 | 61 | 270 | 0.0 | 0.0 | 0.00 | 0.96 | 0.24 | 37 | 995.4 |
| 20260507205401 | 61 | 248 | 0.0 | 0.0 | 0.00 | 0.96 | 0.24 | 36 | 995.4 |
| 20260507204901 | 62 | 225 | 0.0 | 0.0 | 0.00 | 0.96 | 0.24 | 36 | 995.6 |